Simultaneous Nadir Overpasses (SNOs) Predictions

Prediction of SNOs between AQUA and GOES-15 Satellite Orbit:

Table of predicted SNOs for the next 14.0 days since TLE Epoch: 7/23/2022
Index Date Time (AQUA) AQUA Lat,Lon GOES-15 Lat,Lon Distance(km) Time Diff (sec)
1 07/23/2022 10:12:01 -0.27,-128.20 -0.28,-128.25 5.44 80
2 07/25/2022 09:59:24 -0.97,-125.14 -0.29,-128.20 348.82 80
3 07/25/2022 22:20:41 -0.17,-130.29 0.31,-128.18 240.83 80
4 07/27/2022 22:08:03 0.49,-127.22 0.32,-128.13 102.83 80
5 07/28/2022 10:29:12 0.56,-132.35 -0.34,-128.13 480.82 80
6 07/29/2022 21:55:25 1.16,-124.15 0.31,-128.07 446.36 80
7 07/30/2022 10:16:33 -0.05,-129.27 -0.34,-128.07 137.45 80
8 08/01/2022 10:03:55 -0.74,-126.20 -0.34,-128.01 205.86 80
9 08/01/2022 22:25:12 -0.37,-131.36 0.36,-127.98 384.65 80
10 08/03/2022 22:12:33 0.28,-128.28 0.35,-127.91 41.62 80
11 08/05/2022 21:59:54 0.94,-125.20 0.36,-127.84 300.57 80
